This demonstration page uses our WeatherBlox Daily Observations layout. Learn more.

Left ArrowRight Arrow

39.08367, -84.50855

Hourly Observations for August 12, 2015

Temp ( °F °C ) Dew Point ( °F °C ) Humidity (%) Winds ( mph kmh ) Pressure ( in mb ) Visibility ( mi km ) Precip ( " mm )
12:53 am 00:53 Clear 64 17.8 63 17.2 96 96 N N/A 30.04 1017 10 16 N/A
1:53 am 01:53 Clear 65 18.3 62 16.7 90 90 N N/A 30.05 1018 10 16 N/A
2:53 am 02:53 Clear 63 17.2 61 16.1 93 93 N N/A 30.05 1018 10 16 N/A
3:53 am 03:53 Clear 61 16.1 60 15.6 97 97 N N/A 30.06 1018 10 16 N/A
4:53 am 04:53 Clear 62 16.7 60 15.6 93 93 N N/A 30.06 1018 10 16 N/A
5:53 am 05:53 Clear 61 16.1 60 15.6 97 97 N N/A 30.07 1018 10 16 N/A
6:53 am 06:53 Sunny 61 16.1 58 14.4 90 90 N N/A 30.08 1019 10 16 N/A
7:53 am 07:53 Sunny 64 17.8 60 15.6 87 87 N N/A 30.09 1019 10 16 N/A
8:53 am 08:53 Mostly Sunny 67 19.4 60 15.6 79 79 NNW 8 13 30.11 1020 10 16 N/A
9:53 am 09:53 Sunny 70 21.1 61 16.1 73 73 NNE 6 9 30.11 1020 10 16 N/A
10:53 am 10:53 Sunny 74 23.3 61 16.1 64 64 NNE 8 13 30.11 1020 10 16 N/A
11:53 am 11:53 Mostly Sunny 76 24.4 59 15 56 56 N 12 19 30.11 1020 10 16 N/A
12:53 pm 12:53 Partly Cloudy 78 25.6 60 15.6 54 54 N 6 9 30.11 1020 10 16 N/A
1:53 pm 13:53 Mostly Sunny 78 25.6 60 15.6 54 54 NNW 9 15 30.09 1019 10 16 N/A
2:53 pm 14:53 Mostly Cloudy 76 24.4 56 13.3 50 50 N 9 15 30.09 1019 10 16 N/A
3:53 pm 15:53 Mostly Sunny 78 25.6 59 15 52 52 NNE 9 15 30.08 1019 10 16 N/A
4:53 pm 16:53 Mostly Cloudy 79 26.1 59 15 50 50 NNW 8 13 30.08 1019 10 16 N/A
5:53 pm 17:53 Partly Cloudy 78 25.6 57 13.9 48 48 NW 14 22 30.08 1019 10 16 N/A
6:53 pm 18:53 Partly Cloudy 75 23.9 56 13.3 52 52 NW 8 13 30.09 1019 10 16 N/A
7:53 pm 19:53 Sunny 74 23.3 58 14.4 57 57 NNW 8 13 30.09 1019 10 16 N/A
8:53 pm 20:53 Clear 71 21.7 57 13.9 61 61 N 5 7 30.09 1019 10 16 N/A
9:53 pm 21:53 Clear 64 17.8 60 15.6 87 87 N N/A 30.10 1019 10 16 N/A
10:53 pm 22:53 Clear 63 17.2 60 15.6 90 90 N N/A 30.11 1020 10 16 N/A
11:53 pm 23:53 Clear 61 16.1 60 15.6 97 97 N N/A 30.10 1019 10 16 N/A

Powered by AerisWeather